(181095) = 2005 QE59

Discovered at Palomar on 2005-08-25 by NEAT.

Orbit

Orbit type: Main Belt

Note: WebGL enabled browser required.

epoch2023-02-25.0
epoch JD2460000.5
perihelion date2021-01-19.13125
perihelion JD2459233.63125
argument of perihelion (°)284.01541
ascending node (°)107.12038
inclination (°)2.81332
eccentricity0.0412285
perihelion distance (AU)2.7910482
Tisserand w.r.t. Jupiter3.3
ΔV w.r.t. Earth (km/sec)10.4
semimajor axis (AU)2.9110672
mean anomaly (°)152.17613
mean daily motion (°/day)0.19843830
aphelion distance (AU)3.031
period (years)4.97
P-vector [x]0.85482670
P-vector [y]0.49302737
P-vector [z]0.16184972
Q-vector [x]-0.51678917
Q-vector [y]0.78066403
Q-vector [z]0.35141518
absolute magnitude15.76
phase slope0.15
uncertainty0
referenceMPO 745323
observations used500
oppositions17
arc length (days)10161
first opposition used1995
last opposition used2023
residual rms (arc-secs)0.78
perturbers coarse indicatorM-v
perturbers precise indicator003Ek
first observation date used1995-08-29.0
last observation date used2023-06-24.0
computer nameMPCLINUX
JD of orbit computation2456847.629768
perihelion JD uncertainty (days)4.5539E-04
argument of perihelion uncertainty (°)2.6581E-04
ascending node uncertainty (°)2.5129E-04
inclination uncertainty (°)5.3378E-06
eccentricity uncertainty 1.1207E-07
perihelion distance uncertainty (AU)3.3582E-07
Minimum Orbit Intersection Distances (in AU)
for orbit epoch: 2460000.5, reference: E2023-MD7
Mercury2.4451
Venus2.06677
Earth1.79603
Mars1.26772
Jupiter2.15231
Saturn6.20484
Uranus15.4444
Neptune27.0604

Observations

511 total observations over interval: 1995 08 29.23646 – 2023 06 24.225961
These data are available for download (format description).

Date (UT) J2000 RA J2000 Dec Magn Location Ref
1995 08 29.23646 23 38 22.49 -06 22 02.0 19.7 V 809 – European Southern Observatory, La Silla MPS 152098
1995 08 30.22986 23 37 42.55 -06 27 20.1 20.0 V 809 – European Southern Observatory, La Silla MPS 152098
1995 08 30.30000 23 37 39.57 -06 27 43.5 19.8 V 809 – European Southern Observatory, La Silla MPS 152098
1995 08 31.22708 23 37 01.73 -06 32 41.1 20.1 V 809 – European Southern Observatory, La Silla MPS 152098
1998 02 21.44336 12 15 55.45 +02 15 38.7 20.3 V 691 – Steward Observatory, Kitt Peak-Spacewatch MPS 152098
1998 02 21.46449 12 15 54.79 +02 15 44.5 20.8 V 691 – Steward Observatory, Kitt Peak-Spacewatch MPS 152098
1998 02 21.48573 12 15 54.09 +02 15 50.0 20.8 V 691 – Steward Observatory, Kitt Peak-Spacewatch MPS 152098
1998 03 04.39029 12 09 22.11 +03 09 28.3 20.1 V 691 – Steward Observatory, Kitt Peak-Spacewatch MPS 152098
1998 03 04.41118 12 09 21.34 +03 09 34.1 20.1 V 691 – Steward Observatory, Kitt Peak-Spacewatch MPS 152098
1998 03 04.43280 12 09 20.40 +03 09 41.2 20.1 V 691 – Steward Observatory, Kitt Peak-Spacewatch MPS 152098
2000 09 24.27534 23 33 19.87 -07 15 02.6 19.5   704 – Lincoln Laboratory ETS, New Mexico MPS 152098
2000 09 24.28983 23 33 19.32 -07 15 08.0 19.1   704 – Lincoln Laboratory ETS, New Mexico MPS 152098
2000 09 24.30517 23 33 18.51 -07 15 10.4 19.9   704 – Lincoln Laboratory ETS, New Mexico MPS 152098
2000 09 24.31983 23 33 17.82 -07 15 15.9 19.6   704 – Lincoln Laboratory ETS, New Mexico MPS 152098
2001 12 17.30407 06 18 23.65 +22 10 43.3 21.3 V 691 – Steward Observatory, Kitt Peak-Spacewatch MPS 152098
2001 12 17.32634 06 18 22.37 +22 10 45.7 20.8 V 691 – Steward Observatory, Kitt Peak-Spacewatch MPS 152098
2001 12 17.34868 06 18 21.04 +22 10 47.0 21.1 V 691 – Steward Observatory, Kitt Peak-Spacewatch MPS 152098
2003 03 26.28479 12 06 37.90 +03 40 54.1 19.7   644 – Palomar Mountain/NEAT MPS 152098
2003 03 26.30580 12 06 36.88 +03 41 00.3 19.8   644 – Palomar Mountain/NEAT MPS 152098
2003 03 26.33809 12 06 35.33 +03 41 10.4 19.7   644 – Palomar Mountain/NEAT MPS 152098
2005 08 25.41171 00 09 21.50 -03 05 29.4 19.2   644 – Palomar Mountain/NEAT MPS 140311
2005 08 25.42202 00 09 21.18 -03 05 32.1 19.1   644 – Palomar Mountain/NEAT MPS 140311
2005 08 25.43311 00 09 20.82 -03 05 35.0 20.0   644 – Palomar Mountain/NEAT MPS 140311
2005 08 30.37578 00 06 40.68 -03 28 55.8 20.0 V 691 – Steward Observatory, Kitt Peak-Spacewatch MPS 140311
2005 08 30.39314 00 06 40.05 -03 29 00.9 19.9 V 691 – Steward Observatory, Kitt Peak-Spacewatch MPS 140311
2005 08 30.41057 00 06 39.40 -03 29 06.1 19.9 V 691 – Steward Observatory, Kitt Peak-Spacewatch MPS 140311
2005 09 24.28263 23 48 47.79 -05 41 42.7 18.8 R 644 – Palomar Mountain/NEAT MPS 152098
2005 09 24.30425 23 48 46.74 -05 41 49.5 18.9 R 644 – Palomar Mountain/NEAT MPS 152098
2005 09 24.32550 23 48 45.73 -05 41 55.9 18.8 R 644 – Palomar Mountain/NEAT MPS 152098
2005 09 26.87377 23 46 49.33 -05 54 41.8 18.8 V A50 – Andrushivka Astronomical Observatory MPS 163254
2005 10 01.27801 23 43 33.74 -06 15 23.4 19.3 V 703 – Catalina Sky Survey MPS 152098
2005 10 01.28516 23 43 33.31 -06 15 24.0 19.3 V 703 – Catalina Sky Survey MPS 152098
2005 10 01.29233 23 43 33.09 -06 15 27.3 19.6 V 703 – Catalina Sky Survey MPS 152098
2005 10 12.09516 23 36 29.24 -06 56 41.5 20.3 V 691 – Steward Observatory, Kitt Peak-Spacewatch MPS 152098
2005 10 12.11057 23 36 28.67 -06 56 44.6 20.2 V 691 – Steward Observatory, Kitt Peak-Spacewatch MPS 152098
2005 10 12.12660 23 36 28.11 -06 56 47.6 20.0 V 691 – Steward Observatory, Kitt Peak-Spacewatch MPS 152098
2005 10 29.21589 23 29 35.91 -07 26 33.3 20.0 V G96 – Mt. Lemmon Survey MPS 152098
2005 10 29.22281 23 29 35.84 -07 26 33.2 20.0 V G96 – Mt. Lemmon Survey MPS 152098
2005 10 29.22976 23 29 35.73 -07 26 33.7 20.2 V G96 – Mt. Lemmon Survey MPS 152098
2005 10 29.23669 23 29 35.62 -07 26 33.6 20.1 V G96 – Mt. Lemmon Survey MPS 152098
2006 12 10.27696 06 43 56.13 +21 59 19.3   691 – Steward Observatory, Kitt Peak-Spacewatch MPS 192232
2006 12 10.29435 06 43 55.28 +21 59 20.9   691 – Steward Observatory, Kitt Peak-Spacewatch MPS 192232
2006 12 10.31174 06 43 54.49 +21 59 22.9   691 – Steward Observatory, Kitt Peak-Spacewatch MPS 192232
2008 02 18.34536 12 42 10.69 -00 35 44.0 20.6 V G96 – Mt. Lemmon Survey MPS 239155
2008 02 18.35653 12 42 10.44 -00 35 41.9 20.7 V G96 – Mt. Lemmon Survey MPS 239155
2008 02 18.36777 12 42 10.26 -00 35 39.3 20.8 V G96 – Mt. Lemmon Survey MPS 239155
2008 02 18.37900 12 42 10.04 -00 35 36.9 20.5 V G96 – Mt. Lemmon Survey MPS 239155
2008 02 28.33150 12 38 02.45 +00 02 43.3 20.1 V 691 – Steward Observatory, Kitt Peak-Spacewatch MPS 239441
2008 02 28.34911 12 38 01.87 +00 02 47.9 20.0 V 691 – Steward Observatory, Kitt Peak-Spacewatch MPS 239441
2008 02 28.36672 12 38 01.38 +00 02 52.7 19.8 V 691 – Steward Observatory, Kitt Peak-Spacewatch MPS 239441
2008 03 03.27998 12 35 52.69 +00 20 44.8 20.5 V 691 – Steward Observatory, Kitt Peak-Spacewatch MPS 240744
2008 03 03.29762 12 35 52.07 +00 20 50.3 20.4 V 691 – Steward Observatory, Kitt Peak-Spacewatch MPS 240744
2008 03 03.31525 12 35 51.42 +00 20 54.7 20.6 V 691 – Steward Observatory, Kitt Peak-Spacewatch MPS 240744
2008 03 07.26766 12 33 25.84 +00 40 12.3 19.6 V 703 – Catalina Sky Survey MPS 242126
2008 03 07.28016 12 33 25.38 +00 40 15.1 19.4 V 703 – Catalina Sky Survey MPS 242126
2008 03 07.28614 12 33 25.13 +00 40 19.4   691 – Steward Observatory, Kitt Peak-Spacewatch MPS 242126
2008 03 07.29260 12 33 24.98 +00 40 19.9 19.9 V 703 – Catalina Sky Survey MPS 242126
2008 03 07.30382 12 33 24.42 +00 40 24.7   691 – Steward Observatory, Kitt Peak-Spacewatch MPS 242126
2008 03 07.30509 12 33 24.40 +00 40 24.8 20.5 V 703 – Catalina Sky Survey MPS 242126
2008 03 07.32149 12 33 23.70 +00 40 30.1   691 – Steward Observatory, Kitt Peak-Spacewatch MPS 242126
2008 03 11.27216 12 30 44.72 +01 00 46.6 19.9 V 691 – Steward Observatory, Kitt Peak-Spacewatch MPS 242127
2008 03 11.28986 12 30 43.98 +01 00 52.2 19.9 V 691 – Steward Observatory, Kitt Peak-Spacewatch MPS 242127
2008 03 11.30758 12 30 43.25 +01 00 57.4 19.8 V 691 – Steward Observatory, Kitt Peak-Spacewatch MPS 242127
2008 03 29.30718 12 17 06.57 +02 36 04.8 19.8 C 704 – Lincoln Laboratory ETS, New Mexico MPS 287898
2008 03 29.31932 12 17 06.01 +02 36 10.7 19.5 C 704 – Lincoln Laboratory ETS, New Mexico MPS 287898
2008 03 29.34337 12 17 04.91 +02 36 16.9 19.0 C 704 – Lincoln Laboratory ETS, New Mexico MPS 287898
2008 04 08.29443 12 09 40.13 +03 22 44.8 19.7   704 – Lincoln Laboratory ETS, New Mexico MPS 246656
2008 04 08.30584 12 09 39.58 +03 22 48.7 20.3   704 – Lincoln Laboratory ETS, New Mexico MPS 246656
2008 04 08.31721 12 09 39.15 +03 22 49.3 19.7   704 – Lincoln Laboratory ETS, New Mexico MPS 246656
2008 04 08.32854 12 09 38.66 +03 22 51.5 20.4   704 – Lincoln Laboratory ETS, New Mexico MPS 246656
2008 04 27.19890 11 58 58.54 +04 19 51.7 20.2 V G96 – Mt. Lemmon Survey MPS 248865
2008 04 27.20444 11 58 58.40 +04 19 52.6 20.3 V G96 – Mt. Lemmon Survey MPS 248865
2008 04 27.21003 11 58 58.26 +04 19 52.9 19.9 V G96 – Mt. Lemmon Survey MPS 248865
2008 04 27.21563 11 58 58.11 +04 19 53.5 20.2 V G96 – Mt. Lemmon Survey MPS 248865
2008 05 04.17388 11 56 39.76 +04 28 15.8 20.5 V G96 – Mt. Lemmon Survey MPS 249741
2008 05 04.17890 11 56 39.69 +04 28 15.9 20.4 V G96 – Mt. Lemmon Survey MPS 249741
2008 05 04.18385 11 56 39.62 +04 28 16.2 20.6 V G96 – Mt. Lemmon Survey MPS 249741
2008 05 04.18887 11 56 39.51 +04 28 16.4 20.4 V G96 – Mt. Lemmon Survey MPS 249741
2010 09 01.42148 00 22 50.41 -01 49 02.0 19.4   704 – Lincoln Laboratory ETS, New Mexico MPS 346986
2010 09 01.43293 00 22 49.91 -01 49 03.7 20.0   704 – Lincoln Laboratory ETS, New Mexico MPS 346986
2010 09 01.44439 00 22 49.50 -01 49 08.1 19.8   704 – Lincoln Laboratory ETS, New Mexico MPS 346986
2010 09 01.45585 00 22 49.08 -01 49 11.3 20.1   704 – Lincoln Laboratory ETS, New Mexico MPS 346986
2010 09 01.46730 00 22 48.72 -01 49 15.1 19.4   704 – Lincoln Laboratory ETS, New Mexico MPS 346986
2010 09 11.02001 00 16 51.69 -02 37 30.7 19.2 V J75 – OAM Observatory, La Sagra MPS 349238
2010 09 11.02633 00 16 51.46 -02 37 33.1 19.2 V J75 – OAM Observatory, La Sagra MPS 349238
